Location: Cincinnati Observatory Center
(39.1389°N, 84.4225°W)
Time: 07:57:05
(UTC-05:00)

Hubble Space Telescope - Visible Passes

Search period start: 20 December 2014 00:00
Search period end: 30 December 2014 00:00
Orbit: 545 x 549 km, 28.5° (Epoch: 19 December)

Date Brightness Start Highest point End Pass type
(mag) Time Alt. Az. Time Alt. Az. Time Alt. Az.
20 Dec 3.3 18:06:46 10° SW 18:09:31 17° S 18:12:16 10° SE visible
21 Dec 3.4 17:59:06 10° SW 18:01:39 16° S 18:04:11 10° SSE visible
22 Dec 3.5 17:51:32 10° SW 17:53:45 14° SSW 17:55:59 10° SSE visible
23 Dec 3.7 17:44:08 10° SW 17:45:51 12° SSW 17:47:33 10° S visible
